TimeCST,TemperatureF,Dew PointF,Humidity,Sea Level PressureIn,VisibilityMPH,Wind Direction,Wind SpeedMPH,Gust SpeedMPH,PrecipitationIn,Events,Conditions,WindDirDegrees,DateUTC
12:54 AM,16.0,1.9,54,30.32,10.0,South,9.2,-,N/A,,Overcast,170,2013-01-23 06:54:00
1:54 AM,16.0,3.0,57,30.30,10.0,South,9.2,-,N/A,,Overcast,170,2013-01-23 07:54:00
2:54 AM,12.9,1.9,62,30.30,10.0,South,8.1,-,N/A,,Clear,170,2013-01-23 08:54:00
3:54 AM,10.9,1.9,67,30.28,10.0,South,8.1,-,N/A,,Partly Cloudy,170,2013-01-23 09:54:00
4:54 AM,10.9,3.0,70,30.26,10.0,South,5.8,-,N/A,,Partly Cloudy,180,2013-01-23 10:54:00
5:54 AM,10.9,3.9,73,30.22,10.0,South,9.2,-,N/A,,Clear,170,2013-01-23 11:54:00
6:54 AM,12.0,5.0,73,30.23,10.0,South,6.9,-,N/A,,Partly Cloudy,190,2013-01-23 12:54:00
7:54 AM,12.9,6.1,74,30.22,10.0,SSW,8.1,-,N/A,,Mostly Cloudy,200,2013-01-23 13:54:00
8:54 AM,17.1,8.1,68,30.23,10.0,WSW,6.9,-,N/A,,Mostly Cloudy,240,2013-01-23 14:54:00
9:54 AM,21.9,10.0,60,30.24,10.0,West,12.7,-,N/A,,Mostly Cloudy,260,2013-01-23 15:54:00
10:54 AM,26.1,12.0,55,30.25,10.0,NW,16.1,-,N/A,,Mostly Cloudy,320,2013-01-23 16:54:00
11:54 AM,28.0,14.0,56,30.25,10.0,NW,13.8,-,N/A,,Mostly Cloudy,320,2013-01-23 17:54:00
12:54 PM,28.0,14.0,56,30.25,10.0,NW,19.6,-,N/A,,Mostly Cloudy,310,2013-01-23 18:54:00
1:54 PM,28.9,15.1,56,30.24,10.0,NW,18.4,-,N/A,,Overcast,320,2013-01-23 19:54:00
2:54 PM,28.9,15.1,56,30.27,10.0,NW,20.7,26.5,N/A,,Overcast,320,2013-01-23 20:54:00
3:54 PM,27.0,14.0,58,30.30,10.0,NW,18.4,25.3,N/A,,Overcast,320,2013-01-23 21:54:00
4:54 PM,25.0,12.0,58,30.33,10.0,NNW,19.6,23.0,N/A,,Mostly Cloudy,330,2013-01-23 22:54:00
5:54 PM,23.0,9.0,55,30.37,10.0,NNW,18.4,-,N/A,,Mostly Cloudy,330,2013-01-23 23:54:00
6:54 PM,19.9,6.1,55,30.41,10.0,NNW,19.6,28.8,N/A,,Partly Cloudy,340,2013-01-24 00:54:00
7:54 PM,15.1,-0.0,51,30.45,10.0,North,20.7,27.6,N/A,,Clear,360,2013-01-24 01:54:00
8:54 PM,10.9,-2.0,56,30.48,10.0,North,16.1,25.3,N/A,,Mostly Cloudy,360,2013-01-24 02:54:00
9:54 PM,8.1,-2.9,61,30.51,10.0,North,19.6,26.5,N/A,,Scattered Clouds,360,2013-01-24 03:54:00
10:54 PM,7.0,-5.1,58,30.53,10.0,North,17.3,26.5,N/A,,Partly Cloudy,360,2013-01-24 04:54:00
11:54 PM,6.1,-5.1,60,30.57,10.0,North,15.0,-,N/A,,Clear,10,2013-01-24 05:54:00